TimeEDT,TemperatureF,Dew PointF,Humidity,Sea Level PressureIn,VisibilityMPH,Wind Direction,Wind SpeedMPH,Gust SpeedMPH,PrecipitationIn,Events,Conditions,WindDirDegrees,DateUTC
12:56 AM,55.9,55.9,100,30.12,9.0,Calm,Calm,-,N/A,,Overcast,0,2013-06-09 04:56:00
1:56 AM,52.9,52.0,97,30.12,3.0,Calm,Calm,-,N/A,,Clear,0,2013-06-09 05:56:00
2:56 AM,50.0,50.0,100,30.12,5.0,Calm,Calm,-,N/A,,Clear,0,2013-06-09 06:56:00
3:17 AM,50.0,50.0,100,30.12,2.5,Calm,Calm,-,N/A,,Clear,0,2013-06-09 07:17:00
3:25 AM,48.2,48.2,100,30.12,4.0,Calm,Calm,-,N/A,,Clear,0,2013-06-09 07:25:00
3:56 AM,48.9,48.9,100,30.14,5.0,Calm,Calm,-,N/A,,Clear,0,2013-06-09 07:56:00
4:05 AM,48.2,48.2,100,30.14,1.8,Calm,Calm,-,N/A,,Clear,0,2013-06-09 08:05:00
4:23 AM,48.2,48.2,100,30.14,3.0,Calm,Calm,-,N/A,,Clear,0,2013-06-09 08:23:00
4:30 AM,48.2,48.2,100,30.14,1.8,Calm,Calm,-,N/A,,Clear,0,2013-06-09 08:30:00
4:44 AM,48.2,48.2,100,30.14,3.0,Calm,Calm,-,N/A,,Clear,0,2013-06-09 08:44:00
4:56 AM,48.9,47.8,96,30.15,6.0,Calm,Calm,-,N/A,,Clear,0,2013-06-09 08:56:00
5:56 AM,47.8,47.8,100,30.17,4.0,Calm,Calm,-,N/A,,Clear,0,2013-06-09 09:56:00
6:21 AM,48.2,48.2,100,30.17,10.0,Calm,Calm,-,N/A,,Clear,0,2013-06-09 10:21:00
6:56 AM,52.9,52.9,100,30.19,10.0,Calm,Calm,-,N/A,,Clear,0,2013-06-09 10:56:00
7:56 AM,61.0,52.9,75,30.20,10.0,SW,3.5,-,N/A,,Clear,220,2013-06-09 11:56:00
8:56 AM,63.0,52.9,70,30.22,10.0,WNW,5.8,-,N/A,,Clear,290,2013-06-09 12:56:00
9:56 AM,63.9,52.9,67,30.22,10.0,Variable,3.5,-,N/A,,Partly Cloudy,0,2013-06-09 13:56:00
10:56 AM,66.9,54.0,63,30.22,10.0,West,3.5,-,N/A,,Scattered Clouds,270,2013-06-09 14:56:00
11:56 AM,68.0,54.0,61,30.21,10.0,Calm,Calm,-,N/A,,Scattered Clouds,0,2013-06-09 15:56:00
12:56 PM,68.9,54.0,59,30.21,10.0,NW,10.4,-,N/A,,Mostly Cloudy,310,2013-06-09 16:56:00
1:56 PM,70.9,54.0,55,30.20,10.0,Variable,4.6,-,N/A,,Scattered Clouds,0,2013-06-09 17:56:00
2:56 PM,70.9,52.0,51,30.20,10.0,NNW,5.8,-,N/A,,Scattered Clouds,330,2013-06-09 18:56:00
3:56 PM,72.9,52.9,49,30.19,10.0,NW,6.9,-,N/A,,Scattered Clouds,310,2013-06-09 19:56:00
4:56 PM,72.9,50.9,46,30.17,10.0,Calm,Calm,-,N/A,,Scattered Clouds,0,2013-06-09 20:56:00
5:56 PM,72.0,54.9,55,30.17,10.0,NNW,4.6,-,N/A,,Scattered Clouds,330,2013-06-09 21:56:00
6:56 PM,70.9,55.9,59,30.17,10.0,Calm,Calm,-,N/A,,Partly Cloudy,0,2013-06-09 22:56:00
7:56 PM,70.0,55.9,61,30.17,10.0,Calm,Calm,-,N/A,,Clear,0,2013-06-09 23:56:00
8:56 PM,61.0,56.8,86,30.18,10.0,East,3.5,-,N/A,,Clear,90,2013-06-10 00:56:00
9:56 PM,59.0,54.9,86,30.18,10.0,East,5.8,-,N/A,,Clear,90,2013-06-10 01:56:00
10:56 PM,59.9,54.0,81,30.18,10.0,East,5.8,-,N/A,,Clear,80,2013-06-10 02:56:00
11:56 PM,59.0,52.9,80,30.17,10.0,East,6.9,-,N/A,,Clear,80,2013-06-10 03:56:00